QPF
0.00 0.00 0.00 0.00 0.00 0.00 0.00 0.00 0.00 0.00 0.00 0.00 0.00 0.00 0.00 0.00 0.00 0.00 0.00 0.00 0.00 0.00 0.00 0.00 0.00 0.00 0.01 0.00 0.00 0.00 0.00 0.00 0.00 0.00 0.00 0.01 0.01 0.01
0.00 0.00 0.00 0.00 0.00 0.00 0.00 0.00 0.00 0.00 0.00 0.00 0.00 0.00 0.00 0.00 0.00 0.00 0.00 0.00 0.00 0.00 0.00 0.00 0.00 0.00 0.00 0.00 0.00 0.00 0.00 0.00 0.00 0.00 0.00 0.00 0.01 0.01
0.00 0.00 0.00 0.00 0.00 0.00 0.00 0.00 0.00 0.00 0.00 0.00 0.00 0.00 0.00 0.00 0.00 0.00 0.00 0.00 0.00 0.00 0.00 0.00 0.00 0.00 0.00 0.00 0.00 0.00 0.00 0.00 0.00 0.00 0.00 0.00 0.00 0.00
0.01 0.00 0.00 0.00 0.00 0.00 0.00 0.00 0.00 0.00 0.00 0.00 0.00 0.00 0.00 0.00 0.00 0.00 0.00 0.00 0.00 0.00 0.00 0.00 0.00 0.00 0.00 0.00 0.00 0.00 0.00 0.00 0.00 0.00 0.00 0.00 0.00 0.00
0.00 0.00 0.00 0.00 0.00 0.01 0.01 0.00 0.00 0.00 0.00 0.00 0.00 0.00 0.00 0.00 0.00 0.00 0.00 0.00 0.00 0.00 0.00 0.00 0.00 0.00 0.00 0.00 0.00 0.00 0.00 0.00 0.00 0.00 0.00 0.00 0.00 0.00
0.01 0.00 0.00 0.01 0.01 0.01 0.01 0.00 0.00 0.00 0.00 0.00 0.00 0.00 0.00 0.00 0.00 0.00 0.00 0.00 0.00 0.00 0.00 0.00 0.00 0.00 0.00 0.00 0.00 0.00 0.00 0.00 0.00 0.00 0.00 0.00 0.00 0.00
0.01 0.01 0.01 0.01 0.01 0.01 0.01 0.00 0.01 0.00 0.00 0.00 0.00 0.00 0.00 0.00 0.00 0.00 0.00 0.00 0.00 0.00 0.00 0.00 0.00 0.00 0.00 0.00 0.00 0.00 0.00 0.00 0.00 0.00 0.00 0.00 0.00 0.00
0.01 0.01 0.01 0.01 0.01 0.01 0.01 0.01 0.01 0.01 0.00 0.01 0.00 0.00 0.00 0.00 0.00 0.00 0.00 0.00 0.00 0.00 0.00 0.00 0.00 0.00 0.00 0.00 0.00 0.00 0.00 0.00 0.00 0.00 0.00 0.00 0.00 0.00
0.02 0.02 0.02 0.02 0.02 0.01 0.01 0.01 0.01 0.01 0.01 0.01 0.01 0.01 0.01 0.01 0.01 0.00 0.00 0.00 0.00 0.00 0.00 0.00 0.00 0.00 0.00 0.00 0.00 0.00 0.00 0.00 0.00 0.00 0.00 0.00 0.00 0.00
0.04 0.04 0.03 0.03 0.03 0.02 0.02 0.02 0.01 0.01 0.01 0.02 0.01 0.01 0.01 0.01 0.01 0.01 0.00 0.00 0.00 0.00 0.00 0.00 0.00 0.00 0.00 0.00 0.00 0.00 0.00 0.00 0.00 0.00 0.00 0.00 0.00 0.00
0.04 0.04 0.03 0.03 0.04 0.03 0.02 0.01 0.01 0.01 0.01 0.01 0.01 0.01 0.01 0.02 0.01 0.01 0.00 0.00 0.00 0.00 0.00 0.00 0.00 0.00 0.00 0.00 0.00 0.00 0.00 0.00 0.00 0.00 0.00 0.00 0.00 0.00
0.06 0.05 0.06 0.07 0.06 0.05 0.03 0.02 0.02 0.02 0.02 0.01 0.01 0.01 0.02 0.02 0.01 0.01 0.01 0.01 0.01 0.00 0.00 0.00 0.00 0.00 0.00 0.00 0.00 0.00 0.00 0.00 0.00 0.00 0.00 0.00 0.00 0.00
0.07 0.07 0.07 0.08 0.07 0.05 0.04 0.02 0.03 0.03 0.03 0.03 0.02 0.01 0.01 0.01 0.01 0.01 0.01 0.01 0.01 0.01 0.01 0.01 0.01 0.01 0.01 0.00 0.00 0.00 0.00 0.00 0.00 0.00 0.01 0.01 0.01 0.01
0.06 0.06 0.06 0.06 0.06 0.05 0.04 0.04 0.03 0.02 0.02 0.02 0.02 0.01 0.01 0.01 0.01 0.01 0.01 0.01 0.01 0.01 0.02 0.02 0.02 0.02 0.01 0.01 0.01 0.00 0.00 0.00 0.00 0.01 0.01 0.01 0.01 0.01
0.06 0.05 0.05 0.05 0.05 0.04 0.04 0.03 0.03 0.02 0.02 0.02 0.02 0.02 0.03 0.03 0.03 0.02 0.01 0.01 0.01 0.02 0.02 0.02 0.02 0.02 0.03 0.02 0.02 0.01 0.01 0.00 0.01 0.01 0.01 0.00 0.00 0.00
0.04 0.04 0.04 0.04 0.03 0.02 0.02 0.02 0.02 0.03 0.04 0.04 0.04 0.04 0.03 0.03 0.02 0.02 0.01 0.01 0.02 0.01 0.01 0.01 0.02 0.02 0.03 0.02 0.02 0.02 0.01 0.01 0.01 0.01 0.01 0.01 0.00 0.00
0.03 0.03 0.02 0.02 0.02 0.02 0.02 0.02 0.03 0.03 0.04 0.04 0.03 0.03 0.02 0.02 0.02 0.02 0.01 0.01 0.02 0.01 0.01 0.01 0.01 0.02 0.02 0.02 0.02 0.01 0.01 0.01 0.01 0.00 0.00 0.00 0.00 0.00
0.02 0.01 0.01 0.01 0.01 0.01 0.01 0.01 0.02 0.02 0.03 0.03 0.03 0.03 0.02 0.02 0.02 0.01 0.01 0.01 0.01 0.01 0.01 0.01 0.01 0.01 0.01 0.01 0.01 0.01 0.00 0.00 0.00 0.00 0.00 0.00 0.00 0.00
0.02 0.01 0.01 0.01 0.01 0.01 0.02 0.02 0.02 0.02 0.02 0.02 0.02 0.02 0.02 0.02 0.02 0.01 0.01 0.01 0.01 0.01 0.01 0.01 0.01 0.02 0.02 0.01 0.00 0.00 0.00 0.00 0.00 0.00 0.00 0.01 0.00 0.00
0.02 0.02 0.02 0.02 0.03 0.03 0.03 0.03 0.03 0.03 0.03 0.03 0.03 0.03 0.02 0.02 0.01 0.01 0.01 0.02 0.02 0.02 0.02 0.02 0.02 0.03 0.03 0.02 0.01 0.00 0.00 0.01 0.01 0.01 0.00 0.01 0.00 0.00
0.02 0.02 0.02 0.03 0.03 0.04 0.04 0.04 0.04 0.03 0.02 0.02 0.01 0.01 0.01 0.01 0.02 0.02 0.03 0.03 0.03 0.03 0.03 0.03 0.03 0.02 0.02 0.01 0.01 0.00 0.00 0.01 0.01 0.01 0.01 0.01 0.01 0.00
0.03 0.04 0.04 0.05 0.06 0.06 0.05 0.04 0.03 0.02 0.02 0.02 0.02 0.02 0.02 0.03 0.03 0.03 0.03 0.03 0.03 0.03 0.02 0.01 0.01 0.01 0.01 0.02 0.02 0.01 0.01 0.01 0.02 0.02 0.02 0.03 0.02 0.02
0.06 0.06 0.06 0.06 0.05 0.04 0.04 0.04 0.04 0.03 0.03 0.02 0.02 0.02 0.03 0.02 0.02 0.02 0.02 0.02 0.02 0.02 0.01 0.01 0.01 0.01 0.01 0.02 0.02 0.02 0.02 0.02 0.02 0.02 0.02 0.03 0.03 0.02
MSLP
1019.24 1019.41 1019.63 1019.86 1020.07 1020.24 1020.35 1020.39 1020.35 1020.26 1020.13 1019.99 1019.85 1019.74 1019.66 1019.61 1019.60 1019.63 1019.68 1019.77 1019.87 1020.00 1020.14 1020.29 1020.42 1020.54 1020.64 1020.71 1020.75 1020.78 1020.79 1020.79 1020.80 1020.82 1020.83 1020.85 1020.84 1020.82
1019.19 1019.34 1019.52 1019.72 1019.92 1020.08 1020.19 1020.24 1020.23 1020.15 1020.04 1019.90 1019.76 1019.63 1019.51 1019.42 1019.36 1019.33 1019.34 1019.38 1019.45 1019.55 1019.68 1019.81 1019.95 1020.07 1020.18 1020.25 1020.30 1020.33 1020.34 1020.33 1020.33 1020.33 1020.33 1020.33 1020.31 1020.28
1019.10 1019.23 1019.39 1019.58 1019.76 1019.93 1020.05 1020.12 1020.13 1020.09 1020.00 1019.88 1019.74 1019.60 1019.46 1019.33 1019.22 1019.14 1019.08 1019.06 1019.08 1019.14 1019.22 1019.32 1019.44 1019.54 1019.64 1019.71 1019.75 1019.77 1019.78 1019.77 1019.76 1019.75 1019.74 1019.72 1019.70 1019.65
1018.99 1019.12 1019.27 1019.45 1019.63 1019.80 1019.94 1020.03 1020.07 1020.06 1020.00 1019.91 1019.78 1019.64 1019.49 1019.33 1019.18 1019.05 1018.94 1018.86 1018.81 1018.80 1018.82 1018.87 1018.93 1018.99 1019.05 1019.09 1019.12 1019.12 1019.11 1019.10 1019.08 1019.07 1019.05 1019.03 1019.00 1018.95
1018.87 1019.00 1019.16 1019.33 1019.52 1019.69 1019.84 1019.95 1020.02 1020.03 1020.01 1019.94 1019.84 1019.71 1019.56 1019.40 1019.23 1019.06 1018.90 1018.76 1018.65 1018.56 1018.51 1018.47 1018.46 1018.45 1018.44 1018.43 1018.41 1018.39 1018.36 1018.34 1018.31 1018.29 1018.28 1018.26 1018.23 1018.18
1018.75 1018.88 1019.04 1019.22 1019.41 1019.58 1019.73 1019.84 1019.92 1019.95 1019.94 1019.90 1019.83 1019.72 1019.59 1019.44 1019.27 1019.09 1018.90 1018.72 1018.55 1018.39 1018.25 1018.12 1018.01 1017.91 1017.82 1017.73 1017.66 1017.59 1017.53 1017.49 1017.45 1017.44 1017.42 1017.41 1017.39 1017.35
1018.60 1018.75 1018.91 1019.08 1019.26 1019.41 1019.55 1019.65 1019.71 1019.74 1019.74 1019.72 1019.66 1019.59 1019.49 1019.37 1019.22 1019.05 1018.86 1018.65 1018.43 1018.21 1017.98 1017.76 1017.55 1017.35 1017.16 1016.99 1016.85 1016.72 1016.63 1016.56 1016.52 1016.51 1016.51 1016.51 1016.50 1016.48
1018.41 1018.56 1018.72 1018.88 1019.03 1019.15 1019.25 1019.31 1019.35 1019.36 1019.35 1019.32 1019.29 1019.24 1019.18 1019.10 1018.99 1018.85 1018.67 1018.46 1018.21 1017.94 1017.65 1017.34 1017.04 1016.74 1016.46 1016.20 1015.99 1015.81 1015.68 1015.59 1015.55 1015.53 1015.55 1015.56 1015.57 1015.57
1018.16 1018.30 1018.45 1018.59 1018.69 1018.77 1018.82 1018.83 1018.81 1018.78 1018.74 1018.71 1018.68 1018.65 1018.63 1018.59 1018.52 1018.42 1018.28 1018.08 1017.82 1017.52 1017.18 1016.81 1016.43 1016.06 1015.70 1015.38 1015.10 1014.88 1014.72 1014.61 1014.56 1014.55 1014.57 1014.61 1014.64 1014.65
1017.80 1017.95 1018.08 1018.18 1018.25 1018.28 1018.27 1018.21 1018.14 1018.06 1017.98 1017.92 1017.88 1017.87 1017.86 1017.86 1017.83 1017.77 1017.65 1017.48 1017.23 1016.93 1016.56 1016.16 1015.74 1015.31 1014.90 1014.53 1014.22 1013.97 1013.79 1013.67 1013.62 1013.61 1013.64 1013.68 1013.72 1013.74
1017.36 1017.50 1017.62 1017.70 1017.74 1017.72 1017.66 1017.56 1017.43 1017.29 1017.17 1017.08 1017.02 1016.99 1016.99 1016.99 1016.99 1016.95 1016.86 1016.71 1016.48 1016.18 1015.82 1015.41 1014.98 1014.54 1014.11 1013.73 1013.40 1013.14 1012.95 1012.83 1012.77 1012.77 1012.79 1012.84 1012.88 1012.90
1016.87 1017.01 1017.13 1017.21 1017.23 1017.20 1017.10 1016.96 1016.79 1016.62 1016.45 1016.31 1016.22 1016.16 1016.14 1016.13 1016.12 1016.08 1016.00 1015.86 1015.65 1015.37 1015.02 1014.64 1014.22 1013.80 1013.39 1013.02 1012.71 1012.45 1012.27 1012.15 1012.08 1012.07 1012.08 1012.11 1012.13 1012.14
1016.38 1016.54 1016.68 1016.78 1016.82 1016.79 1016.70 1016.55 1016.36 1016.15 1015.95 1015.77 1015.63 1015.52 1015.45 1015.40 1015.36 1015.29 1015.20 1015.05 1014.85 1014.58 1014.27 1013.92 1013.54 1013.16 1012.80 1012.46 1012.18 1011.94 1011.77 1011.64 1011.57 1011.53 1011.51 1011.51 1011.50 1011.49
1015.98 1016.18 1016.36 1016.50 1016.59 1016.59 1016.53 1016.40 1016.22 1016.00 1015.78 1015.56 1015.36 1015.19 1015.05 1014.93 1014.82 1014.70 1014.56 1014.39 1014.18 1013.93 1013.65 1013.33 1013.01 1012.68 1012.37 1012.08 1011.83 1011.62 1011.45 1011.31 1011.21 1011.14 1011.08 1011.03 1010.98 1010.92
1015.76 1016.02 1016.25 1016.46 1016.60 1016.67 1016.66 1016.57 1016.41 1016.20 1015.96 1015.70 1015.44 1015.20 1014.98 1014.77 1014.58 1014.38 1014.18 1013.97 1013.74 1013.49 1013.23 1012.95 1012.67 1012.39 1012.13 1011.88 1011.66 1011.45 1011.27 1011.11 1010.97 1010.85 1010.73 1010.62 1010.51 1010.41
1015.80 1016.11 1016.41 1016.67 1016.89 1017.03 1017.07 1017.03 1016.91 1016.71 1016.46 1016.17 1015.86 1015.55 1015.23 1014.93 1014.64 1014.36 1014.09 1013.83 1013.56 1013.30 1013.04 1012.79 1012.54 1012.30 1012.06 1011.83 1011.61 1011.39 1011.18 1010.98 1010.78 1010.58 1010.40 1010.22 1010.05 1009.89
1016.13 1016.48 1016.84 1017.16 1017.43 1017.63 1017.73 1017.74 1017.64 1017.46 1017.20 1016.89 1016.53 1016.14 1015.75 1015.36 1014.98 1014.62 1014.28 1013.95 1013.65 1013.36 1013.10 1012.84 1012.60 1012.36 1012.12 1011.87 1011.62 1011.36 1011.09 1010.82 1010.54 1010.27 1010.01 1009.77 1009.54 1009.33
1016.75 1017.14 1017.52 1017.88 1018.18 1018.41 1018.54 1018.57 1018.50 1018.32 1018.06 1017.72 1017.32 1016.89 1016.43 1015.97 1015.52 1015.09 1014.68 1014.30 1013.96 1013.64 1013.35 1013.07 1012.80 1012.53 1012.25 1011.95 1011.63 1011.29 1010.94 1010.58 1010.21 1009.86 1009.52 1009.21 1008.94 1008.69
1017.61 1017.99 1018.37 1018.73 1019.03 1019.26 1019.39 1019.43 1019.35 1019.18 1018.90 1018.55 1018.12 1017.65 1017.16 1016.65 1016.15 1015.67 1015.22 1014.80 1014.42 1014.07 1013.73 1013.41 1013.09 1012.75 1012.40 1012.01 1011.60 1011.16 1010.70 1010.23 1009.77 1009.33 1008.92 1008.56 1008.24 1007.98
1018.61 1018.96 1019.31 1019.62 1019.88 1020.08 1020.18 1020.20 1020.11 1019.92 1019.63 1019.27 1018.83 1018.35 1017.84 1017.32 1016.80 1016.30 1015.82 1015.38 1014.97 1014.57 1014.19 1013.81 1013.41 1012.98 1012.53 1012.03 1011.50 1010.94 1010.36 1009.79 1009.23 1008.71 1008.25 1007.85 1007.51 1007.24
1019.63 1019.93 1020.22 1020.46 1020.66 1020.79 1020.84 1020.81 1020.69 1020.48 1020.19 1019.82 1019.39 1018.91 1018.41 1017.90 1017.39 1016.89 1016.41 1015.95 1015.51 1015.08 1014.64 1014.19 1013.71 1013.19 1012.62 1012.00 1011.35 1010.67 1009.98 1009.31 1008.67 1008.10 1007.59 1007.17 1006.83 1006.56
1020.58 1020.82 1021.02 1021.18 1021.29 1021.34 1021.33 1021.24 1021.08 1020.85 1020.54 1020.18 1019.77 1019.31 1018.84 1018.35 1017.86 1017.38 1016.91 1016.45 1015.99 1015.52 1015.04 1014.52 1013.95 1013.33 1012.66 1011.93 1011.17 1010.39 1009.61 1008.87 1008.18 1007.57 1007.05 1006.63 1006.30 1006.06
1021.38 1021.53 1021.65 1021.72 1021.74 1021.71 1021.62 1021.48 1021.28 1021.02 1020.72 1020.36 1019.97 1019.54 1019.10 1018.65 1018.19 1017.73 1017.27 1016.81 1016.34 1015.84 1015.31 1014.73 1014.09 1013.40 1012.64 1011.84 1011.00 1010.16 1009.33 1008.55 1007.84 1007.23 1006.72 1006.32 1006.02 1005.81
Thickness
5717 5716 5715 5715 5714 5713 5711 5709 5704 5698 5698 5702 5704 5706 5705 5704 5703 5701 5699 5697 5695 5693 5691 5689 5688 5686 5685 5683 5682 5680 5679 5678 5677 5676 5675 5674 5673 5672
5715 5714 5714 5713 5712 5711 5710 5708 5706 5703 5699 5701 5702 5703 5703 5703 5701 5699 5697 5696 5694 5692 5690 5688 5687 5685 5684 5682 5681 5679 5678 5677 5675 5674 5673 5672 5671 5670
5713 5713 5712 5711 5710 5709 5708 5706 5704 5702 5699 5699 5699 5700 5699 5699 5698 5696 5695 5693 5692 5691 5689 5687 5686 5684 5683 5681 5679 5678 5677 5675 5674 5673 5671 5670 5669 5668
5712 5711 5710 5709 5707 5706 5705 5703 5702 5700 5698 5696 5696 5696 5696 5695 5694 5693 5692 5691 5689 5688 5687 5686 5684 5682 5681 5679 5677 5676 5674 5673 5671 5670 5669 5667 5666 5664
5711 5709 5708 5707 5705 5703 5702 5701 5699 5698 5696 5694 5692 5692 5691 5690 5689 5689 5688 5687 5686 5686 5684 5683 5682 5680 5678 5676 5674 5673 5671 5670 5668 5666 5665 5664 5662 5660
5709 5708 5707 5706 5704 5702 5700 5698 5696 5694 5692 5690 5688 5687 5686 5685 5684 5684 5683 5683 5682 5682 5681 5680 5678 5677 5675 5673 5671 5670 5668 5666 5664 5662 5660 5659 5657 5655
5707 5706 5706 5704 5703 5701 5699 5697 5694 5691 5688 5686 5684 5683 5682 5681 5680 5679 5678 5678 5677 5676 5676 5675 5674 5672 5670 5669 5667 5665 5663 5661 5659 5657 5655 5653 5651 5649
5705 5704 5703 5702 5701 5699 5698 5696 5693 5689 5686 5683 5682 5679 5679 5678 5676 5674 5672 5670 5670 5671 5669 5669 5667 5666 5665 5663 5662 5660 5657 5655 5653 5651 5648 5646 5643 5641
5704 5702 5701 5701 5698 5697 5695 5693 5690 5688 5686 5683 5680 5678 5677 5675 5672 5670 5667 5665 5664 5665 5662 5663 5662 5660 5660 5658 5656 5653 5651 5648 5646 5643 5640 5638 5635 5633
5703 5701 5699 5697 5696 5693 5691 5689 5687 5685 5683 5681 5679 5678 5675 5672 5669 5666 5663 5660 5659 5657 5654 5654 5656 5654 5654 5652 5649 5646 5643 5640 5637 5634 5631 5628 5626 5624
5700 5699 5697 5695 5694 5690 5687 5684 5682 5681 5680 5678 5676 5673 5670 5667 5663 5659 5656 5653 5653 5653 5648 5646 5648 5647 5646 5645 5642 5638 5635 5632 5628 5625 5623 5620 5617 5614
5697 5695 5694 5692 5690 5687 5684 5681 5678 5677 5675 5673 5670 5668 5665 5662 5658 5654 5651 5647 5646 5644 5643 5637 5637 5635 5636 5637 5633 5628 5625 5622 5619 5616 5613 5610 5606 5603
5693 5691 5690 5687 5685 5682 5679 5677 5675 5673 5670 5667 5664 5661 5658 5655 5652 5648 5645 5641 5638 5636 5634 5629 5627 5623 5620 5622 5623 5618 5614 5611 5608 5605 5603 5599 5596 5592
5690 5688 5685 5683 5680 5677 5674 5671 5668 5665 5662 5659 5656 5654 5651 5648 5645 5641 5638 5634 5631 5628 5624 5619 5616 5612 5609 5608 5610 5609 5605 5600 5597 5595 5592 5589 5586 5583
5684 5682 5679 5677 5673 5670 5667 5664 5660 5657 5654 5651 5648 5646 5644 5640 5636 5633 5629 5625 5621 5618 5614 5609 5605 5602 5597 5596 5596 5596 5593 5591 5587 5583 5580 5577 5575 5572
5676 5674 5671 5668 5665 5662 5658 5655 5652 5649 5646 5643 5640 5637 5633 5630 5626 5622 5619 5615 5611 5608 5604 5599 5595 5591 5588 5586 5583 5583 5580 5577 5576 5572 5568 5566 5563 5560
5669 5665 5662 5659 5655 5652 5648 5645 5642 5639 5635 5632 5629 5626 5622 5619 5615 5611 5606 5602 5598 5597 5594 5590 5584 5580 5577 5575 5574 5572 5569 5566 5563 5559 5555 5555 5554 5550
5660 5656 5652 5649 5645 5642 5638 5635 5631 5628 5624 5621 5618 5614 5611 5608 5603 5599 5594 5590 5587 5584 5581 5577 5573 5570 5568 5567 5562 5559 5557 5554 5551 5547 5542 5542 5544 5542
5650 5645 5641 5638 5634 5631 5627 5624 5621 5617 5614 5610 5607 5603 5599 5595 5591 5587 5582 5578 5575 5571 5567 5564 5560 5556 5555 5556 5555 5546 5543 5541 5538 5536 5533 5531 5532 5533
5638 5634 5630 5626 5623 5619 5616 5612 5609 5606 5602 5598 5594 5590 5586 5582 5577 5573 5569 5565 5562 5558 5555 5552 5547 5543 5540 5540 5540 5538 5531 5527 5526 5526 5525 5523 5523 5522
5625 5621 5618 5614 5610 5607 5603 5600 5596 5592 5588 5584 5580 5575 5571 5567 5563 5559 5555 5550 5547 5545 5542 5539 5535 5530 5527 5525 5526 5527 5523 5517 5513 5512 5513 5513 5515 5516
5612 5608 5605 5601 5597 5593 5589 5585 5582 5578 5573 5569 5565 5561 5556 5553 5549 5545 5542 5538 5535 5531 5528 5526 5523 5519 5516 5514 5514 5513 5513 5511 5507 5505 5503 5501 5501 5505
5598 5594 5591 5587 5582 5578 5574 5570 5566 5562 5557 5553 5549 5545 5542 5539 5535 5531 5528 5524 5521 5518 5515 5513 5511 5508 5505 5503 5502 5502 5502 5502 5502 5502 5501 5498 5495 5495